[[{"header":{"parameterUnit":"m.s-1","parameterCategory":1,"la1":30.2991,"la2":30.254,"lo1":-89.0895,"lo2":-89.0444,"dy":0.0017,"dx":0.0017,"nx":28,"ny":28,"refTime":"2026-02-09T09:00:00:Z","depth":0,"parameterNumber":2,"parameterNumberName":"U-component_of_WINDS"},"data":[0,0,0,0,0,0,0,0,0,0,0,0,0,0,0,0,0,0,0,0,0,0,0,0,0,0,0,0,0,0,0,0,0,0,0,0,0,0,0,0,0,0,0,0,0,0,0,0,0,0,0,0,0,0,0,0,0,0,1.135,1.1351,0,1.1416,1.1416,1.1417,1.136,1.1357,1.1355,1.1353,1.1422,1.1426,1.143,0,0,0,0,0,0,0,0,0,0,0,0,0,1.1179,1.1182,1.135,1.1351,1.1351,1.1415,1.1416,1.1417,1.136,1.1357,1.1354,1.1352,1.1421,1.1425,1.143,0,0,0,0,0,0,0,0,0,0,0,0,0,1.125,1.1183,1.135,1.1331,1.133,1.1415,1.1416,1.1417,1.1361,1.1357,1.1354,1.135,1.1419,1.1425,1.1431,1.1539,0,0,1.1449,1.1452,0,0,0,0,0,0,0,0,1.1246,1.1256,1.1333,1.1332,1.1331,1.1376,1.1381,1.1458,1.1362,1.1349,1.1353,1.1349,1.141,1.1416,1.1436,1.1543,1.1546,1.145,1.1454,1.1456,1.1458,0,0,0,0,0,0,0,1.1241,1.1253,1.1376,1.1334,1.1333,1.132,1.1326,1.1396,1.1398,1.135,1.1346,1.1354,1.1409,1.1431,1.1438,1.1547,1.145,1.1455,1.1459,1.1461,1.1748,1.1752,0,0,0,0,0,0,1.1237,1.1249,1.1374,1.1378,1.1279,1.1326,1.1333,1.1365,1.1397,1.1399,1.1357,1.1351,1.1422,1.1431,1.144,1.1571,1.1456,1.1462,1.1465,1.1744,1.1749,1.1753,0,0,0,0,0,0,1.1234,1.1249,1.1371,1.1312,1.1327,1.1333,1.1369,1.1368,1.139,1.1403,1.1404,1.1379,1.142,1.1431,1.1516,1.1572,1.1465,1.147,1.174,1.1746,1.1751,1.1832,0,0,0,0,0,0,1.1229,1.1248,1.1288,1.1314,1.133,1.1445,1.1373,1.1372,1.1401,1.1394,1.1424,1.1425,1.1418,1.1507,1.1522,1.1579,1.1475,1.1735,1.1742,1.1749,1.1825,1.184,1.1854,0,0,0,0,0,1.1223,1.1308,1.1291,1.1306,1.1381,1.1448,1.1458,1.1447,1.1405,1.1447,1.1455,1.1424,1.1564,1.1516,1.1532,1.1592,1.1731,1.174,1.1749,1.1818,1.1837,1.1853,0,0,0,0,0,0,1.1289,1.1311,1.1292,1.1387,1.1416,1.1438,1.149,1.1467,1.1508,1.15,1.1485,1.1493,1.1582,1.1595,1.1542,1.17,1.1641,1.1654,1.1688,1.1706,1.1721,1.1716,1.148,0,0,0,0,0,1.1315,1.1367,1.1384,1.1466,1.1482,1.1484,1.1513,1.1502,1.1532,1.1544,1.1558,1.1589,1.164,1.1674,1.1721,1.1826,1.1833,1.1876,1.189,1.1902,1.1913,1.1973,1.1992,1.1783,1.1783,1.1783,0,0,1.1368,1.1387,1.1421,1.148,1.1501,1.1557,1.1494,1.1555,1.1597,1.1553,1.1634,1.1646,1.168,1.1776,1.1819,1.1789,1.1973,1.1914,1.1923,1.1928,1.1984,1.2004,1.2021,1.1789,1.1788,1.1787,0,0,1.1494,1.1513,1.1585,1.1608,1.1641,1.1642,1.166,1.1686,1.1692,1.1773,1.1742,1.1792,1.188,1.1906,1.193,1.207,1.2044,1.2086,1.2162,1.222,1.2236,1.2251,1.2302,1.2321,1.2097,1.2097,1.2097,0,1.1557,1.1638,1.1625,1.1689,1.1717,1.168,1.1754,1.1777,1.1825,1.1846,1.1812,1.1923,1.1943,1.2046,1.208,1.2101,1.2122,1.2082,1.2235,1.2249,1.2263,1.2312,1.2331,1.2102,1.2101,1.2101,1.21,0,1.1714,1.1772,1.1826,1.1873,1.1908,1.1976,1.1975,1.2012,1.1999,1.2004,1.2088,1.2111,1.2164,1.2188,1.2175,1.229,1.2271,1.2237,1.2177,1.2288,1.2334,1.2352,1.2109,1.2107,1.2106,1.2105,0,0,1.1882,1.1922,1.1943,1.1965,1.2,1.2045,1.2113,1.2164,1.2197,1.2232,1.229,1.2366,1.2336,1.2364,1.2354,1.2405,1.2517,1.2365,1.2366,1.2394,1.2647,1.2673,1.2695,1.25,1.2504,1.2506,1.2645,0,1.201,1.2128,1.2119,1.2231,1.2285,1.2253,1.2313,1.2342,1.235,1.2398,1.2406,1.2461,1.2416,1.2433,1.2482,1.2493,1.2568,1.2483,1.2556,1.2558,1.2549,1.2718,1.2745,1.2875,1.2662,1.2665,1.2668,0,1.2175,1.2216,1.2334,1.2363,1.2386,1.2439,1.2487,1.2533,1.2567,1.2569,1.2602,1.2585,1.2656,1.2595,1.2694,1.2637,1.2666,1.2677,1.2682,1.2688,1.262,1.2731,1.2916,1.2935,1.2695,1.2693,1.2691,0,1.2287,1.2372,1.2454,1.2473,1.2509,1.2548,1.2566,1.2595,1.2628,1.267,1.2692,1.2742,1.277,1.281,1.2808,1.2763,1.2909,1.2848,1.2915,1.2915,1.2946,1.2945,1.314,1.2965,1.2964,1.2964,1.2964,0,1.2432,1.2505,1.2505,1.2555,1.2637,1.2628,1.271,1.2723,1.2751,1.2804,1.2779,1.2831,1.2824,1.2877,1.2876,1.2959,1.2972,1.2977,1.2976,1.2979,1.2979,1.2999,1.299,1.2969,1.2968,1.2967,1.2966,0,1.257,1.2573,1.266,1.2688,1.2697,1.2757,1.2781,1.283,1.2836,1.2905,1.292,1.2931,1.2991,1.2993,1.3062,1.3062,1.3164,1.3153,1.3153,1.3151,1.3218,1.3212,1.3433,1.3463,1.3268,1.327,1.3271,0,1.2662,1.2718,1.2753,1.2787,1.2806,1.2861,1.2895,1.2889,1.2925,1.2969,1.3013,1.3071,1.3117,1.3216,1.323,1.3284,1.3274,1.3348,1.3282,1.3285,1.3277,1.3274,1.3281,1.3361,1.3363,1.3365,1.3366,0,1.2826,1.2825,1.2874,1.2924,1.2965,1.3004,1.304,1.307,1.3068,1.311,1.3172,1.3208,1.328,1.3339,1.3392,1.3411,1.339,1.3387,1.3406,1.341,1.3408,1.3412,1.3189,1.3382,1.3381,1.3379,1.3379,1.3378,1.2945,1.2994,1.3027,1.3082,1.3109,1.3145,1.3192,1.3206,1.3256,1.3314,1.3308,1.3377,1.3412,1.3481,1.3505,1.356,1.3535,1.3561,1.3568,1.3575,1.3583,1.34,1.357,1.3569,1.3569,1.3568,1.3568,0,1.3108,1.3128,1.318,1.3232,1.3277,1.3252,1.3292,1.3332,1.3393,1.3427,1.3473,1.3546,1.3604,1.3624,1.3681,1.3721,1.3713,1.3736,1.3734,1.3739,1.3602,1.358,1.3742,1.3742,1.3742,1.3742,1.3742,1.3742,1.3198,1.3281,1.3285,1.3381,1.3401,1.3468,1.3493,1.3527,1.3554,1.3636,1.3684,1.3697,1.3726,1.3786,1.3838,1.3843,1.3866,1.3893,1.3894,1.3766,1.3748,1.3731,1.3711,1.3898,1.3898,1.4027,1.4028,1.4029]},{"header":{"parameterUnit":"m.s-1","parameterCategory":1,"la1":30.2991,"la2":30.254,"lo1":-89.0895,"lo2":-89.0444,"dy":0.0017,"dx":0.0017,"nx":28,"ny":28,"refTime":"2026-02-09T09:00:00:Z","depth":0,"parameterNumber":3,"parameterNumberName":"V-component_of_WINDS"},"data":[0,0,0,0,0,0,0,0,0,0,0,0,0,0,0,0,0,0,0,0,0,0,0,0,0,0,0,0,0,0,0,0,0,0,0,0,0,0,0,0,0,0,0,0,0,0,0,0,0,0,0,0,0,0,0,0,0,0,0.466,0.466,0,0.4731,0.4732,0.4732,0.4717,0.4715,0.4714,0.4712,0.4797,0.48,0.4804,0,0,0,0,0,0,0,0,0,0,0,0,0,0.4522,0.4525,0.466,0.4661,0.4661,0.4731,0.4732,0.4733,0.4717,0.4715,0.4713,0.4712,0.4796,0.48,0.4804,0,0,0,0,0,0,0,0,0,0,0,0,0,0.4587,0.4526,0.466,0.4662,0.4662,0.473,0.4732,0.4733,0.4717,0.4715,0.4713,0.4711,0.4794,0.48,0.4805,0.4879,0,0,0.4821,0.4823,0,0,0,0,0,0,0,0,0.4583,0.4592,0.466,0.4662,0.4663,0.4712,0.4714,0.4782,0.4718,0.4697,0.4712,0.471,0.4771,0.4778,0.4797,0.4883,0.4886,0.4821,0.4825,0.4827,0.4828,0,0,0,0,0,0,0,0.4579,0.4589,0.4688,0.4661,0.4663,0.4663,0.467,0.4727,0.4745,0.4698,0.4697,0.4705,0.4772,0.4791,0.4798,0.4887,0.4821,0.4826,0.4829,0.4831,0.5041,0.5043,0,0,0,0,0,0,0.4571,0.4585,0.4686,0.469,0.4617,0.4667,0.4675,0.4699,0.4744,0.4749,0.4707,0.4704,0.4783,0.4792,0.4801,0.4892,0.4827,0.4832,0.4835,0.5039,0.5042,0.5044,0,0,0,0,0,0,0.4569,0.4581,0.4683,0.4637,0.465,0.4671,0.4699,0.4701,0.4721,0.4751,0.4755,0.4723,0.4782,0.4794,0.4859,0.4895,0.4834,0.4839,0.5036,0.504,0.5043,0.5074,0,0,0,0,0,0,0.4565,0.458,0.4605,0.4638,0.4653,0.4736,0.4701,0.4704,0.4729,0.4726,0.4767,0.4772,0.4781,0.4851,0.4865,0.4901,0.4843,0.5033,0.5037,0.5042,0.507,0.5079,0.5086,0,0,0,0,0,0.456,0.4613,0.4606,0.4619,0.4684,0.4738,0.4747,0.4753,0.4731,0.4759,0.4779,0.4771,0.4889,0.4858,0.4873,0.4912,0.5031,0.5036,0.5041,0.5067,0.5077,0.5085,0,0,0,0,0,0,0.4588,0.4617,0.461,0.4675,0.4704,0.4735,0.477,0.4764,0.4802,0.4799,0.4808,0.4818,0.4885,0.4905,0.4871,0.4987,0.4957,0.4966,0.4972,0.4981,0.4989,0.4984,0.4848,0,0,0,0,0,0.4601,0.4638,0.4664,0.4719,0.4733,0.4749,0.4773,0.4775,0.4807,0.482,0.4844,0.4879,0.4924,0.4954,0.4997,0.5073,0.5084,0.5107,0.5115,0.5121,0.5129,0.5174,0.5185,0.5062,0.5062,0.5062,0,0,0.4629,0.465,0.4674,0.4725,0.4747,0.479,0.476,0.4805,0.4838,0.4828,0.4891,0.491,0.495,0.5021,0.5054,0.504,0.5165,0.5128,0.5133,0.5137,0.518,0.5192,0.5202,0.5065,0.5065,0.5064,0,0,0.4703,0.4721,0.4769,0.4792,0.4825,0.4836,0.4848,0.488,0.4892,0.4953,0.4947,0.4989,0.5065,0.5094,0.5119,0.5205,0.5201,0.5219,0.526,0.5304,0.5313,0.5322,0.5355,0.5367,0.5227,0.5227,0.5227,0,0.4736,0.4795,0.4796,0.4842,0.4867,0.4856,0.4907,0.4931,0.4978,0.4997,0.4979,0.5076,0.5102,0.5181,0.5202,0.5222,0.5239,0.5215,0.5311,0.532,0.5328,0.536,0.5372,0.5229,0.5229,0.5229,0.5228,0,0.4835,0.4876,0.4912,0.4954,0.4982,0.5031,0.5043,0.5073,0.5073,0.5086,0.5152,0.5182,0.5232,0.5251,0.5253,0.5332,0.5322,0.5308,0.5278,0.5342,0.5372,0.5384,0.5232,0.5231,0.5231,0.523,0,0,0.4929,0.497,0.4983,0.5003,0.5039,0.5074,0.5124,0.5168,0.5194,0.5228,0.5273,0.5338,0.5325,0.5354,0.5359,0.5397,0.5466,0.5378,0.538,0.5396,0.5558,0.557,0.5583,0.5462,0.5465,0.5466,0.5556,0,0.5007,0.509,0.5093,0.5171,0.5212,0.5203,0.5247,0.5276,0.5291,0.5331,0.5349,0.5395,0.5373,0.5391,0.5427,0.5449,0.5499,0.5443,0.5508,0.5511,0.55,0.5599,0.5611,0.5693,0.5567,0.5569,0.557,0,0.5109,0.5142,0.5223,0.5254,0.5272,0.5311,0.5353,0.539,0.5425,0.5433,0.5465,0.5465,0.5521,0.5488,0.5567,0.5529,0.5556,0.5572,0.5575,0.5583,0.5545,0.5612,0.572,0.5733,0.5589,0.5587,0.5586,0,0.5172,0.5237,0.5294,0.5311,0.5349,0.5377,0.5395,0.5427,0.5454,0.5493,0.5512,0.5558,0.5584,0.5622,0.5636,0.561,0.5716,0.5684,0.5729,0.5728,0.5753,0.5751,0.5869,0.5767,0.5767,0.5766,0.5766,0,0.526,0.5311,0.5323,0.5358,0.5416,0.5421,0.5479,0.5496,0.5525,0.5567,0.5563,0.5603,0.5619,0.5663,0.5676,0.5741,0.5753,0.5764,0.5767,0.5765,0.5764,0.5785,0.578,0.577,0.5769,0.5768,0.5768,0,0.5341,0.535,0.5412,0.5442,0.5451,0.5492,0.552,0.5557,0.557,0.5623,0.5636,0.5659,0.5711,0.5729,0.5793,0.5801,0.5878,0.5876,0.5865,0.5867,0.5911,0.5907,0.6047,0.6067,0.595,0.5951,0.5952,0,0.5397,0.5435,0.5468,0.5494,0.5512,0.5553,0.5581,0.5588,0.5618,0.566,0.5693,0.5743,0.5784,0.5868,0.5894,0.5944,0.5944,0.5989,0.5952,0.5949,0.5948,0.5946,0.5951,0.5997,0.5998,0.5999,0.6,0,0.5497,0.55,0.5536,0.5576,0.5607,0.564,0.5671,0.5694,0.5707,0.5741,0.5791,0.5823,0.5887,0.5939,0.599,0.6013,0.6011,0.6011,0.6025,0.6024,0.6018,0.6024,0.5887,0.6009,0.6008,0.6007,0.6007,0.6006,0.5569,0.5603,0.5631,0.5673,0.5697,0.5727,0.5762,0.5779,0.582,0.587,0.5873,0.5929,0.5967,0.6034,0.606,0.6107,0.6095,0.6114,0.6119,0.6124,0.6128,0.6008,0.6116,0.6116,0.6116,0.6116,0.6116,0,0.567,0.5687,0.5726,0.5768,0.5803,0.5792,0.5827,0.5858,0.5905,0.5938,0.5977,0.6038,0.6088,0.6117,0.6169,0.6201,0.6202,0.6215,0.6214,0.622,0.6135,0.6119,0.6214,0.6214,0.6214,0.6214,0.6214,0.6214,0.5727,0.5784,0.5791,0.5862,0.588,0.5931,0.5953,0.5982,0.6008,0.6073,0.6114,0.6131,0.6164,0.6218,0.6265,0.6273,0.6294,0.6308,0.6316,0.6236,0.6226,0.6216,0.6201,0.6312,0.6312,0.6397,0.6398,0.6398]}]]